TimeEST,TemperatureF,Dew PointF,Humidity,Sea Level PressureIn,VisibilityMPH,Wind Direction,Wind SpeedMPH,Gust SpeedMPH,PrecipitationIn,Events,Conditions,WindDirDegrees,DateUTC
12:15 AM,35.6,30.2,81,30.10,10.0,South,3.5,-,N/A,,Clear,170,2013-03-05 05:15:00
12:35 AM,35.6,30.2,81,30.10,10.0,Calm,Calm,-,N/A,,Clear,0,2013-03-05 05:35:00
12:55 AM,35.6,32.0,87,30.10,10.0,Calm,Calm,-,N/A,,Clear,0,2013-03-05 05:55:00
1:15 AM,35.6,32.0,87,30.10,10.0,Calm,Calm,-,N/A,,Clear,0,2013-03-05 06:15:00
1:35 AM,37.4,30.2,75,30.11,10.0,Calm,Calm,-,N/A,,Clear,0,2013-03-05 06:35:00
1:55 AM,35.6,30.2,81,30.10,10.0,South,4.6,-,N/A,,Clear,170,2013-03-05 06:55:00
2:15 AM,37.4,30.2,75,30.10,10.0,Calm,Calm,-,N/A,,Clear,0,2013-03-05 07:15:00
2:35 AM,37.4,30.2,75,30.10,10.0,South,3.5,-,N/A,,Clear,190,2013-03-05 07:35:00
3:35 AM,37.4,32.0,81,30.10,10.0,South,3.5,-,N/A,,Clear,190,2013-03-05 08:35:00
3:55 AM,39.2,32.0,75,30.10,10.0,Calm,Calm,-,N/A,,Clear,0,2013-03-05 08:55:00
4:15 AM,37.4,32.0,81,30.10,10.0,South,3.5,-,N/A,,Clear,190,2013-03-05 09:15:00
4:35 AM,37.4,32.0,81,30.10,10.0,South,3.5,-,N/A,,Clear,180,2013-03-05 09:35:00
4:55 AM,37.4,32.0,81,30.11,10.0,South,3.5,-,N/A,,Clear,170,2013-03-05 09:55:00
5:15 AM,37.4,32.0,81,30.11,10.0,South,3.5,-,N/A,,Clear,170,2013-03-05 10:15:00
5:35 AM,37.4,32.0,81,30.11,10.0,South,4.6,-,N/A,,Scattered Clouds,190,2013-03-05 10:35:00
5:55 AM,35.6,32.0,87,30.11,10.0,South,3.5,-,N/A,,Scattered Clouds,180,2013-03-05 10:55:00
6:15 AM,37.4,33.8,87,30.11,10.0,South,3.5,-,N/A,,Clear,170,2013-03-05 11:15:00
6:35 AM,37.4,33.8,87,30.10,10.0,South,3.5,-,N/A,,Clear,170,2013-03-05 11:35:00
6:55 AM,37.4,33.8,87,30.10,10.0,South,3.5,-,N/A,,Clear,180,2013-03-05 11:55:00
7:15 AM,39.2,35.6,87,30.10,10.0,South,4.6,-,N/A,,Clear,180,2013-03-05 12:15:00
7:55 AM,42.8,37.4,81,30.10,10.0,South,6.9,-,N/A,,Scattered Clouds,170,2013-03-05 12:55:00
8:15 AM,44.6,41.0,87,30.10,10.0,South,8.1,-,N/A,,Scattered Clouds,180,2013-03-05 13:15:00
8:35 AM,50.0,41.0,71,30.09,10.0,South,6.9,-,N/A,,Scattered Clouds,180,2013-03-05 13:35:00
8:55 AM,51.8,37.4,58,30.08,10.0,South,6.9,-,N/A,,Clear,190,2013-03-05 13:55:00
9:15 AM,53.6,37.4,54,30.07,10.0,South,9.2,-,N/A,,Clear,190,2013-03-05 14:15:00
9:35 AM,53.6,37.4,54,30.07,10.0,South,11.5,-,N/A,,Clear,190,2013-03-05 14:35:00
9:55 AM,57.2,37.4,48,30.06,10.0,SSW,10.4,-,N/A,,Clear,200,2013-03-05 14:55:00
10:15 AM,59.0,37.4,45,30.04,10.0,South,9.2,-,N/A,,Clear,180,2013-03-05 15:15:00
10:35 AM,60.8,35.6,39,30.04,10.0,SSW,11.5,-,N/A,,Clear,200,2013-03-05 15:35:00
10:55 AM,64.4,35.6,34,30.03,10.0,SW,12.7,19.6,N/A,,Clear,220,2013-03-05 15:55:00
11:15 AM,62.6,33.8,34,30.02,10.0,SSW,17.3,-,N/A,,Mostly Cloudy,200,2013-03-05 16:15:00
11:35 AM,62.6,35.6,37,30.02,10.0,SW,16.1,20.7,N/A,,Overcast,230,2013-03-05 16:35:00
11:55 AM,60.8,35.6,39,30.01,10.0,SW,10.4,-,N/A,,Overcast,220,2013-03-05 16:55:00
12:15 PM,60.8,37.4,42,30.02,10.0,SW,8.1,-,N/A,,Overcast,220,2013-03-05 17:15:00
12:35 PM,59.0,39.2,48,30.01,10.0,SW,12.7,17.3,N/A,,Overcast,230,2013-03-05 17:35:00
12:55 PM,60.8,37.4,42,29.99,10.0,SW,9.2,-,N/A,,Overcast,220,2013-03-05 17:55:00
1:15 PM,59.0,39.2,48,29.97,10.0,SSW,8.1,-,N/A,Rain,Light Rain,210,2013-03-05 18:15:00
1:35 PM,59.0,39.2,48,29.96,10.0,South,8.1,-,N/A,,Overcast,190,2013-03-05 18:35:00
1:55 PM,60.8,37.4,42,29.94,10.0,South,11.5,-,N/A,,Overcast,190,2013-03-05 18:55:00
2:15 PM,64.4,39.2,40,29.92,10.0,South,11.5,16.1,N/A,,Overcast,190,2013-03-05 19:15:00
2:35 PM,64.4,39.2,40,29.90,10.0,SSW,9.2,20.7,N/A,,Overcast,210,2013-03-05 19:35:00
2:55 PM,66.2,39.2,37,29.89,10.0,SSW,16.1,24.2,N/A,,Mostly Cloudy,200,2013-03-05 19:55:00
3:15 PM,68.0,41.0,37,29.88,10.0,SSW,18.4,25.3,N/A,,Scattered Clouds,200,2013-03-05 20:15:00
3:35 PM,68.0,41.0,37,29.87,10.0,SSW,16.1,25.3,N/A,,Clear,200,2013-03-05 20:35:00
3:55 PM,68.0,41.0,37,29.86,10.0,South,12.7,24.2,N/A,,Clear,180,2013-03-05 20:55:00
4:15 PM,68.0,42.8,40,29.84,10.0,SSW,13.8,24.2,N/A,,Clear,200,2013-03-05 21:15:00
4:35 PM,64.4,44.6,49,29.85,10.0,South,13.8,19.6,N/A,,Scattered Clouds,190,2013-03-05 21:35:00
4:55 PM,64.4,44.6,49,29.84,10.0,SSW,15.0,20.7,N/A,,Mostly Cloudy,210,2013-03-05 21:55:00
5:15 PM,64.4,46.4,52,29.83,10.0,SSW,11.5,19.6,N/A,,Mostly Cloudy,200,2013-03-05 22:15:00
5:35 PM,64.4,46.4,52,29.82,10.0,SSW,13.8,20.7,N/A,,Overcast,200,2013-03-05 22:35:00
5:55 PM,64.4,44.6,49,29.82,10.0,South,13.8,20.7,N/A,,Overcast,180,2013-03-05 22:55:00
6:15 PM,62.6,44.6,52,29.82,10.0,South,13.8,21.9,N/A,,Overcast,190,2013-03-05 23:15:00
6:35 PM,60.8,44.6,55,29.80,10.0,South,16.1,21.9,N/A,,Scattered Clouds,180,2013-03-05 23:35:00
6:55 PM,60.8,44.6,55,29.81,10.0,South,13.8,-,N/A,,Mostly Cloudy,190,2013-03-05 23:55:00
7:15 PM,60.8,46.4,59,29.79,10.0,South,13.8,19.6,N/A,,Overcast,180,2013-03-06 00:15:00
7:35 PM,59.0,46.4,63,29.76,10.0,South,12.7,18.4,N/A,,Overcast,180,2013-03-06 00:35:00
7:55 PM,59.0,44.6,59,29.74,10.0,South,15.0,20.7,N/A,,Scattered Clouds,170,2013-03-06 00:55:00
8:15 PM,59.0,44.6,59,29.73,10.0,South,12.7,-,N/A,,Scattered Clouds,180,2013-03-06 01:15:00
8:35 PM,57.2,44.6,63,29.72,10.0,South,15.0,20.7,N/A,,Scattered Clouds,170,2013-03-06 01:35:00
8:55 PM,57.2,44.6,63,29.71,10.0,South,11.5,18.4,N/A,,Scattered Clouds,170,2013-03-06 01:55:00
9:15 PM,57.2,42.8,59,29.70,10.0,South,16.1,19.6,N/A,,Scattered Clouds,180,2013-03-06 02:15:00
9:35 PM,57.2,44.6,63,29.70,10.0,South,15.0,20.7,N/A,Rain,Light Rain,180,2013-03-06 02:35:00
9:55 PM,57.2,44.6,63,29.69,10.0,South,15.0,20.7,N/A,,Overcast,180,2013-03-06 02:55:00
10:15 PM,57.2,46.4,67,29.66,10.0,South,17.3,23.0,N/A,Rain,Rain,180,2013-03-06 03:15:00
10:35 PM,57.2,50.0,77,29.65,10.0,South,17.3,25.3,N/A,,Overcast,190,2013-03-06 03:35:00
10:55 PM,57.2,51.8,82,29.65,10.0,South,20.7,25.3,N/A,,Mostly Cloudy,190,2013-03-06 03:55:00
11:15 PM,59.0,51.8,77,29.65,10.0,SSW,13.8,24.2,N/A,,Mostly Cloudy,210,2013-03-06 04:15:00
11:35 PM,59.0,51.8,77,29.64,10.0,SW,13.8,23.0,N/A,,Overcast,220,2013-03-06 04:35:00
11:55 PM,57.2,51.8,82,29.63,10.0,SW,15.0,25.3,N/A,,Scattered Clouds,220,2013-03-06 04:55:00